Lid_Strength_Index
1 1 4 5 9 11 15 13 9 10 10 6 6 7 8 7 9 12 2 1 0 0 0 -1 -1 -1 -1 -1 -1 -2 -1 -1 -1 -1 -1 -1 -1 -1 -1 -1 -1 -1 -1 -1 -1 -1 -1 -1 -1
2 4 5 8 11 15 14 11 11 9 7 6 6 6 8 9 4 4 3 0 -0 -0 0 0 -1 -1 -1 -1 -2 -2 -2 -1 -2 -1 -1 -1 -1 -1 -1 -1 -1 -1 -1 -1 -1 -1 -1 -1 -1
1 4 8 10 12 14 14 10 9 8 6 7 7 5 6 7 4 3 1 0 -0 0 0 0 -1 -1 -1 -1 -2 -2 -2 -2 -1 -1 -1 -1 -1 -1 -1 -1 -1 -1 -1 -1 -1 -1 -1 -1 -1
5 7 9 11 12 11 10 9 8 8 7 6 6 8 5 4 3 2 0 -0 0 0 0 -1 -1 -1 -1 -1 -2 -2 -2 -1 -1 -1 -1 -1 -1 -1 -1 -1 -1 -1 -1 -1 -1 -1 -1 -1 -1
7 9 12 14 14 10 9 7 7 8 7 7 6 8 7 5 1 1 1 -0 0 0 0 -0 -1 -1 -1 -1 -1 -2 -2 -2 -2 -2 -1 -1 -1 -1 -1 -1 -1 -1 -1 -1 -1 -1 -1 -1 -1
9 10 14 15 15 10 8 7 7 8 8 7 7 7 7 3 2 1 0 0 -0 0 -0 -0 -1 -1 -1 -1 -1 -1 -1 -1 -1 -2 -2 -1 -1 -1 -1 -1 -1 -1 -1 -1 -1 -1 -1 -1 -1
11 12 14 15 14 10 8 6 8 8 8 7 5 8 6 4 2 1 1 0 -0 -0 -0 -0 -0 -0 -1 -1 -1 -1 -1 -1 -1 -1 -1 -2 -2 -2 -2 -2 -2 -2 -2 -2 -1 -1 -1 -1 -1
10 12 14 15 14 11 8 7 6 7 7 4 4 8 9 4 1 1 1 1 1 1 1 1 0 -0 0 0 -1 -1 -1 -1 -1 -1 -1 -1 -2 -2 -2 -2 -2 -2 -2 -2 -2 -2 -2 -1 -1
10 13 15 15 11 12 7 8 7 4 6 5 4 5 4 2 2 2 2 2 2 1 1 2 1 0 0 -0 -1 -1 -1 -1 -1 -1 -1 -1 0 0 -0 -1 -1 -2 -2 -2 -2 -2 -2 -1 -1
11 14 13 12 11 11 10 7 6 7 6 7 6 4 3 2 2 3 3 3 3 3 2 1 1 0 -0 -0 0 -0 -0 -0 -0 -0 -0 0 0 0 -1 -1 -2 -2 -2 -1 -2 -2 -2 -1 -0
12 12 11 10 10 10 10 10 9 7 9 7 7 6 4 3 3 3 3 3 3 2 2 2 0 -0 1 1 -0 -0 -0 -0 -0 -0 -0 0 -0 -0 1 2 1 0 -0 -0 -0 -0 -0 0 0
10 10 9 9 8 9 10 10 9 6 7 5 4 4 4 4 4 4 3 3 2 3 3 2 2 1 2 1 0 1 1 0 -0 -0 0 0 -0 0 3 2 3 0 0 0 0 0 1 2 1
11 10 9 8 8 8 8 8 7 7 5 4 4 4 4 5 4 3 2 2 3 3 3 2 1 0 0 1 1 1 1 1 1 -0 2 2 3 2 3 4 3 4 3 0 1 2 2 3 2
9 10 10 10 9 8 7 7 7 6 5 5 5 5 4 4 4 3 3 3 2 2 2 2 2 2 2 2 2 2 2 2 3 2 2 1 2 3 3 3 5 4 3 2 1 1 1 2 0
10 11 11 10 9 9 8 9 9 5 5 6 6 5 5 4 3 4 3 3 3 2 1 2 2 2 2 3 2 3 3 3 3 3 3 2 3 3 3 4 5 3 2 2 3 3 3 4 3
10 12 14 11 9 9 10 13 8 5 6 6 6 5 5 4 4 3 3 3 3 3 3 2 1 2 3 3 3 3 3 2 3 3 3 2 2 3 3 4 3 3 2 2 2 2 3 3 2
12 14 13 11 10 10 11 11 7 5 6 7 6 6 5 5 4 4 3 2 3 3 2 2 2 2 2 2 2 2 3 2 3 3 2 2 2 2 2 2 2 2 2 2 2 3 2 3 3
14 14 13 13 10 11 11 11 8 6 6 7 6 6 6 5 5 3 2 2 2 2 1 2 2 3 3 3 3 3 3 3 2 2 1 0 0 0 1 1 1 1 1 2 2 3 1 3 4
11 12 12 11 10 11 12 11 8 7 7 7 7 6 6 5 4 3 2 2 2 2 2 2 3 3 4 4 4 4 3 2 1 1 0 0 0 -0 1 1 1 1 1 2 2 2 2 3 3
11 13 13 12 10 12 11 11 10 8 8 7 7 7 6 6 5 4 3 3 3 3 3 3 2 2 2 2 2 2 3 2 1 0 0 0 0 0 -0 -0 0 1 1 1 1 1 2 2 2
12 12 12 12 11 11 13 14 11 9 8 7 7 6 6 5 5 5 4 4 4 3 3 3 3 1 1 2 3 3 3 3 2 2 1 0 0 0 0 -0 -0 0 1 2 2 2 1 3 2
13 10 11 11 13 15 12 17 14 11 10 8 7 8 7 6 6 6 6 6 4 3 3 3 3 2 1 2 3 4 5 5 4 3 2 0 0 0 0 0 0 1 1 2 2 1 1 2 3
11 10 12 11 14 15 14 16 14 10 11 11 10 8 8 8 9 9 8 6 6 5 3 3 3 3 3 3 3 4 4 4 3 3 3 3 1 0 0 0 1 1 1 0 2 2 2 1 2
10 12 13 13 15 17 15 15 14 13 12 10 9 8 8 9 9 9 8 8 7 6 5 6 6 5 5 5 4 3 3 3 3 3 3 3 3 3 1 0 2 2 2 2 2 2 3 2 2
12 15 18 18 17 18 14 14 13 11 10 9 9 10 9 9 9 8 9 8 7 7 6 5 6 6 5 5 4 4 5 4 4 4 4 4 3 3 3 2 3 3 3 2 2 2 1 1 1
13 14 17 20 19 17 13 16 13 9 9 9 9 9 8 9 9 9 8 8 8 7 6 6 6 6 5 4 5 5 5 5 5 5 5 5 4 4 3 3 2 2 2 2 2 2 2 2 1
12 14 13 16 16 17 15 13 10 9 10 9 9 8 9 10 10 9 9 8 8 7 7 6 6 6 5 6 6 6 5 6 6 6 6 5 5 4 4 4 4 4 3 2 2 1 2 2 2
12 11 15 16 19 19 17 15 14 11 10 10 10 11 11 11 10 10 8 8 7 7 6 6 5 5 6 6 6 6 6 6 5 6 6 6 6 5 5 4 4 4 4 4 3 3 2 3 3
12 13 14 14 15 18 19 16 12 11 11 11 11 11 11 11 10 10 9 7 7 6 6 6 6 6 7 6 6 6 6 6 6 7 6 6 6 5 4 5 4 4 5 5 5 6 4 3 3
11 13 14 17 17 16 17 16 11 11 11 11 11 11 11 10 9 9 9 7 7 7 6 6 6 7 7 7 7 7 7 6 6 6 6 5 5 5 4 4 3 3 3 3 4 5 5 5 4